Location: Al Mulaqqa?ah
(24.1833°N, 32.8833°E)
Time: 22:01:44
(UTC+00:00)

ATLAS CENTAUR R/B - Pass Details

Date: 26 September 2021
Orbit: 459 x 683 km, 64.6° (Epoch: 22 October)

Event Time Altitude Azimuth Distance (km) Brightness Sun altitude
Rises 17:58:04 0° 316° (NW) 3,013 5.9 -31.9°
Reaches altitude 10° 18:00:44 10° 303° (WNW) 2,112 5.1 -32.5°
Maximum altitude 18:04:35 24° 250° (WSW) 1,405 3.8 -33.4°
Enters shadow 18:04:58 24° 243° (WSW) 1,414 3.7 -33.5°
